Powrót do katalogu

STARLINK-36423

AktywnyŁącznośćVLEO
NORAD 67448·PAYLOAD·🇺🇸 United States

Wystrzelony Jan 14, 2026 z Cape Canaveral Space Force Station

Loading…

Następne Przeloty (najbliższe 24 godziny)

TLE

ŚwieżeSource: CelesTrak SupGP

Epoka: Sep 14, 2026, 22:42 UTC

1 67448C 26008D   26257.94631944  .00002858  00000+0  10356-3 0  2574
2 67448  43.0000 216.3478 0000972 257.5327 233.0238 15.27562984    19

Śledź STARLINK-36423 w czasie rzeczywistym z AllMySat

Download on the App Store